(179187) = 2001 TY147

Discovered at Palomar on 2001-10-10 by NEAT.

Orbit

Orbit type: Main Belt

Note: WebGL enabled browser required.

epoch2023-02-25.0
epoch JD2460000.5
perihelion date2020-07-23.86023
perihelion JD2459054.36023
argument of perihelion (°)222.92463
ascending node (°)150.41728
inclination (°)6.73973
eccentricity0.0836647
perihelion distance (AU)2.5800673
Tisserand w.r.t. Jupiter3.3
ΔV w.r.t. Earth (km/sec)10.3
semimajor axis (AU)2.8156367
mean anomaly (°)197.37594
mean daily motion (°/day)0.20861180
aphelion distance (AU)3.051
period (years)4.72
P-vector [x]0.97068691
P-vector [y]0.23975730
P-vector [z]0.01683311
Q-vector [x]-0.23325976
Q-vector [y]0.92286559
Q-vector [z]0.30644573
absolute magnitude16.57
phase slope0.15
uncertainty0
referenceMPO 745323
observations used277
oppositions16
arc length (days)8854
first opposition used1999
last opposition used2023
residual rms (arc-secs)0.76
perturbers coarse indicatorM-v
perturbers precise indicator003Ek
first observation date used1999-03-20.0
last observation date used2023-06-16.0
computer nameMPCLINUX
JD of orbit computation2456909.262807
perihelion JD uncertainty (days)8.9181E-05
argument of perihelion uncertainty (°)3.1610E-05
ascending node uncertainty (°)2.6573E-05
inclination uncertainty (°)2.8278E-06
eccentricity uncertainty 2.8088E-08
perihelion distance uncertainty (AU)8.2092E-08
Minimum Orbit Intersection Distances (in AU)
for orbit epoch: 2460000.5, reference: E2023-M35
Mercury2.22294
Venus1.85468
Earth1.58255
Mars1.16722
Jupiter2.37461
Saturn6.26557
Uranus15.4138
Neptune27.2709

Observations

283 total observations over interval: 1999 03 20.333300 – 2023 06 16.340662
These data are available for download (format description).

Date (UT) J2000 RA J2000 Dec Magn Location Ref
1999 03 20.333300 12 48 50.259 +01 09 23.72 20.86 V 645 – Apache Point-Sloan Digital Sky Survey MPS 239325
1999 03 20.336772 12 48 50.096 +01 09 25.07 21.67   645 – Apache Point-Sloan Digital Sky Survey MPS 239325
2001 09 16.44771 02 02 29.92 +04 37 55.0 20.1   704 – Lincoln Laboratory ETS, New Mexico MPS 151901
2001 09 16.46188 02 02 29.70 +04 37 50.0 20.4   704 – Lincoln Laboratory ETS, New Mexico MPS 151901
2001 09 16.47624 02 02 29.39 +04 37 45.6 20.2   704 – Lincoln Laboratory ETS, New Mexico MPS 151901
2001 10 10.38928 01 49 09.45 +02 02 51.3 20.3   644 – Palomar Mountain/NEAT MPS 39549
2001 10 10.41037 01 49 08.46 +02 02 43.1 20.1   644 – Palomar Mountain/NEAT MPS 39549
2001 10 10.43147 01 49 07.49 +02 02 34.7 20.4   644 – Palomar Mountain/NEAT MPS 39549
2001 10 16.35701 01 44 34.04 +01 23 38.5 20.5   644 – Palomar Mountain/NEAT MPS 39549
2001 10 16.37985 01 44 32.92 +01 23 29.5 19.5   644 – Palomar Mountain/NEAT MPS 39549
2001 10 16.40046 01 44 31.93 +01 23 21.9 20.3   644 – Palomar Mountain/NEAT MPS 39549
2001 11 21.225140 01 21 48.448 -00 51 02.11 20.57 V 645 – Apache Point-Sloan Digital Sky Survey MPS 151901
2001 11 21.228612 01 21 48.376 -00 51 02.16 21.48   645 – Apache Point-Sloan Digital Sky Survey MPS 151901
2005 06 14.396827 20 29 48.686 -12 45 59.83 21.71 V 645 – Apache Point-Sloan Digital Sky Survey MPS 390152
2005 06 14.400299 20 29 48.628 -12 46 00.04 22.64   645 – Apache Point-Sloan Digital Sky Survey MPS 390152
2005 06 29.27041 20 23 42.63 -13 12 12.9 20.6 V 691 – Steward Observatory, Kitt Peak-Spacewatch MPS 151901
2005 06 29.29114 20 23 41.90 -13 12 16.7 20.4 V 691 – Steward Observatory, Kitt Peak-Spacewatch MPS 151901
2005 06 29.30855 20 23 41.27 -13 12 19.3 20.4 V 691 – Steward Observatory, Kitt Peak-Spacewatch MPS 151901
2005 07 11.32224 20 15 33.37 -13 52 29.4 19.9 V G96 – Mt. Lemmon Survey MPS 151901
2005 07 11.32876 20 15 33.04 -13 52 30.5 19.9 V G96 – Mt. Lemmon Survey MPS 151901
2005 07 11.33529 20 15 32.76 -13 52 32.2 19.9 V G96 – Mt. Lemmon Survey MPS 151901
2005 07 11.34182 20 15 32.43 -13 52 33.5 19.7 V G96 – Mt. Lemmon Survey MPS 151901
2006 10 30.38093 04 05 49.27 +10 17 58.8 20.7 V 703 – Catalina Sky Survey MPS 185282
2006 10 30.38666 04 05 48.94 +10 17 54.3 19.7 V 703 – Catalina Sky Survey MPS 185282
2006 10 30.39944 04 05 48.48 +10 17 52.6 20.6 V 703 – Catalina Sky Survey MPS 185282
2006 10 30.40996 04 05 48.12 +10 17 51.3 19.1 V 703 – Catalina Sky Survey MPS 185282
2006 11 15.21707 03 53 24.01 +09 16 43.4 19.2 R G92 – Jarnac Observatory, Vail MPS 186815
2006 11 15.24711 03 53 22.40 +09 16 38.4 19.4 R G92 – Jarnac Observatory, Vail MPS 186815
2006 11 15.27661 03 53 20.80 +09 16 32.7 18.8 R G92 – Jarnac Observatory, Vail MPS 186815
2006 11 17.23391 03 51 37.66 +09 10 07.2 19.4 R G92 – Jarnac Observatory, Vail MPS 186815
2006 11 17.26494 03 51 35.96 +09 10 00.9 18.4 R G92 – Jarnac Observatory, Vail MPS 186815
2006 11 17.29589 03 51 34.28 +09 09 55.2 19.2 R G92 – Jarnac Observatory, Vail MPS 186815
2006 11 19.29189 03 49 48.25 +09 03 45.6 20.1 V 703 – Catalina Sky Survey MPS 188424
2006 11 19.29797 03 49 47.82 +09 03 45.1 20.6 V 703 – Catalina Sky Survey MPS 188424
2006 11 19.30406 03 49 47.49 +09 03 43.3 20.6 V 703 – Catalina Sky Survey MPS 188424
2006 11 19.31017 03 49 47.24 +09 03 41.5 20.6 V 703 – Catalina Sky Survey MPS 188424
2006 11 23.44154 03 46 07.24 +08 52 17.4 19.9 V G96 – Mt. Lemmon Survey MPS 188424
2006 11 23.44500 03 46 07.06 +08 52 16.7 19.8 V G96 – Mt. Lemmon Survey MPS 188424
2006 11 23.44847 03 46 06.88 +08 52 16.2 19.4 V G96 – Mt. Lemmon Survey MPS 188424
2006 11 23.45194 03 46 06.70 +08 52 15.9 19.5 V G96 – Mt. Lemmon Survey MPS 188424
2008 01 30.44579 10 39 22.71 +08 13 35.5 20.6 V G96 – Mt. Lemmon Survey MPS 235279
2008 01 30.45518 10 39 22.39 +08 13 38.3 20.6 V G96 – Mt. Lemmon Survey MPS 235279
2008 01 30.46455 10 39 22.06 +08 13 41.3 20.8 V G96 – Mt. Lemmon Survey MPS 235279
2008 01 30.47411 10 39 21.74 +08 13 44.6 21.1 V G96 – Mt. Lemmon Survey MPS 235279
2008 02 08.28106 10 33 43.73 +09 05 04.2 20.4 V 691 – Steward Observatory, Kitt Peak-Spacewatch MPS 236145
2008 02 08.29865 10 33 42.95 +09 05 10.7 20.8 V 691 – Steward Observatory, Kitt Peak-Spacewatch MPS 236145
2008 02 08.31625 10 33 42.20 +09 05 17.7 20.5 V 691 – Steward Observatory, Kitt Peak-Spacewatch MPS 236145
2008 02 24.43439 10 21 14.61 +10 51 15.8 20.5 V G96 – Mt. Lemmon Survey MPS 239325
2008 02 24.44106 10 21 14.29 +10 51 18.9 20.4 V G96 – Mt. Lemmon Survey MPS 239325
2008 02 24.44762 10 21 13.93 +10 51 21.3 19.8 V G96 – Mt. Lemmon Survey MPS 239325
2008 02 24.45414 10 21 13.64 +10 51 23.4 20.4 V G96 – Mt. Lemmon Survey MPS 239325
2008 03 29.21104 09 59 49.81 +13 50 31.2 21.0 V G96 – Mt. Lemmon Survey MPS 245617
2008 03 29.22109 09 59 49.59 +13 50 33.1 21.1 V G96 – Mt. Lemmon Survey MPS 245617
2008 03 29.23110 09 59 49.34 +13 50 35.4 20.6 V G96 – Mt. Lemmon Survey MPS 245617
2008 03 29.24109 09 59 49.16 +13 50 36.9 21.5 V G96 – Mt. Lemmon Survey MPS 245617
2008 04 05.20562 09 57 57.49 +14 10 04.2 21.1 V G96 – Mt. Lemmon Survey MPS 246640
2008 04 05.21385 09 57 57.42 +14 10 05.6 20.8 V G96 – Mt. Lemmon Survey MPS 246640
2008 04 05.22218 09 57 57.34 +14 10 06.6 20.8 V G96 – Mt. Lemmon Survey MPS 246640
2008 04 05.23052 09 57 57.20 +14 10 07.8 21.1 V G96 – Mt. Lemmon Survey MPS 246640
2009 05 01.32077 15 43 43.25 -09 37 27.7 20.5 V 691 – Steward Observatory, Kitt Peak-Spacewatch MPS 286369
2009 05 01.33847 15 43 42.41 -09 37 23.4 20.6 V 691 – Steward Observatory, Kitt Peak-Spacewatch MPS 286369
2009 05 01.35616 15 43 41.65 -09 37 19.0 20.4 V 691 – Steward Observatory, Kitt Peak-Spacewatch MPS 286369
2009 05 31.32400 15 19 40.05 -08 02 54.4   691 – Steward Observatory, Kitt Peak-Spacewatch MPS 288571
2009 05 31.34166 15 19 39.25 -08 02 52.1   691 – Steward Observatory, Kitt Peak-Spacewatch MPS 288571
2009 05 31.35932 15 19 38.48 -08 02 50.5   691 – Steward Observatory, Kitt Peak-Spacewatch MPS 288571
2010 08 18.493985 22 17 49.774 -10 23 58.98 20.27 r F51 – Pan-STARRS 1, Haleakala MPS 365086
2010 08 18.505743 22 17 49.228 -10 24 03.98 20.03 r F51 – Pan-STARRS 1, Haleakala MPS 365086
2010 08 18.515455 22 17 48.763 -10 24 08.12 20.51 g F51 – Pan-STARRS 1, Haleakala MPS 365086
2010 08 18.526526 22 17 48.258 -10 24 12.86 20.51 g F51 – Pan-STARRS 1, Haleakala MPS 365086
2010 08 20.03894 22 16 40.84 -10 35 01.0 19.5 V J75 – OAM Observatory, La Sagra MPS 346067
2010 08 20.05186 22 16 40.31 -10 35 06.3 19.2 V J75 – OAM Observatory, La Sagra MPS 346067
2010 08 20.06477 22 16 39.78 -10 35 11.8 19.4 V J75 – OAM Observatory, La Sagra MPS 346067
2011 12 01.53714 06 08 10.120 +13 59 15.55 20.8 g F51 – Pan-STARRS 1, Haleakala MPS 403578
2011 12 01.54970 06 08 09.527 +13 59 15.25 21.0 g F51 – Pan-STARRS 1, Haleakala MPS 403578
2011 12 02.56498 06 07 22.540 +13 58 50.20 20.3 r F51 – Pan-STARRS 1, Haleakala MPS 403578
2011 12 02.57539 06 07 22.032 +13 58 49.65 20.2 r F51 – Pan-STARRS 1, Haleakala MPS 403578
2012 01 02.26611 05 39 55.47 +14 24 05.5 19.7 V G96 – Mt. Lemmon Survey MPS 406864
2012 01 02.27360 05 39 55.08 +14 24 06.8 20.1 V G96 – Mt. Lemmon Survey MPS 406864
2012 01 02.28104 05 39 54.68 +14 24 07.7 19.4 V G96 – Mt. Lemmon Survey MPS 406864
2013 03 08.44710 11 56 09.506 +04 46 02.51 20.7 w F51 – Pan-STARRS 1, Haleakala MPS 460244
2013 03 08.46122 11 56 08.871 +04 46 08.53 21.0 w F51 – Pan-STARRS 1, Haleakala MPS 460244
2013 03 08.47532 11 56 08.212 +04 46 14.26 21.3 w F51 – Pan-STARRS 1, Haleakala MPS 460244
2013 03 08.48945 11 56 07.571 +04 46 20.13 20.8 w F51 – Pan-STARRS 1, Haleakala MPS 460244
2014 06 05.48237 17 11 27.542 -13 00 29.80 20.4 w F51 – Pan-STARRS 1, Haleakala MPS 518571
2014 06 05.49737 17 11 26.740 -13 00 29.14 20.4 w F51 – Pan-STARRS 1, Haleakala MPS 518571
2014 06 05.51241 17 11 25.944 -13 00 28.25 20.1 w F51 – Pan-STARRS 1, Haleakala MPS 518571
2014 06 24.38022 16 55 25.808 -12 57 40.75 21.2 w F51 – Pan-STARRS 1, Haleakala MPS 520925
2014 06 24.40588 16 55 24.552 -12 57 41.74 20.6 w F51 – Pan-STARRS 1, Haleakala MPS 520925
2014 06 24.41867 16 55 23.931 -12 57 42.14 20.4 w F51 – Pan-STARRS 1, Haleakala MPS 520925
2014 07 02.32831 16 49 41.777 -13 05 15.42 21.3 w F51 – Pan-STARRS 1, Haleakala MPS 521945
